STARLINK-1882, 46784

Orbit data source: Space-Track

STARLINK-1882, 46784 is a payload satellite owned by SpaceX/Seattle (US) in LEO that was launched on Sat, 24 Oct 2020 UTC via an FALCON 9 launch vehicle from the Air Force Eastern Test Range (AFETR). Payload-class satellites include a variety of spacecraft equipped with specific instruments for various scientific and technological missions. These include communications satellites like Starlink; space stations such as the ISS; scientific satellites like the Hubble; Earth observation satellites from companies like Planet Labs, Umbra, and HawkEye 360; GPS; miniature CubeSats for education and research; and military/defense satellites.

Loading next visibility...
Identifier
46784, 2020-074AX
Orbit
LEO
Country
Flag of USUS
Related business
Manufacturer
SpaceX/Seattle
Mission
Partially operational Commercial Communications
Bus & Motor
STARLINK, Unknown motor
Mass
260 kg wet, ~248 kg dry
Launch date (UTC)
2020-10-24 (5 years ago)
Launch vehicle
FALCON 9
Launch site
Air Force Eastern Test Range (AFETR)
Object type
Payload
Rocket body
Debris
Shape & HBR
Box + 1 Pan, 10.1 m
Radar Cross Section
13.562 m², Large (>1 m²)

Expand to show TLE details & history
Last TLE update: 7 hours ago

TLE from 7 hours ago
0 STARLINK-1882
1 46784U 20074AX  26036.33335648 -.00305012  00000-0 -48990-2 0  9999
2 46784  53.0562  71.8411 0009077   2.4960 249.6352 15.53421543  5906
Epoch: 2026-02-05T08:00Z
TLE epoch observation values (Epoch: 2026-02-05T08:00:01.999Z)
Latitude
-49.66001°
Longitude
58.05675°
Altitude
425.987 km
Speed
7.654 km/s
True Right ascension
20h 54m 12s
True Declination
-49° 28' 55"
Sunlit
Object was in daylight at epoch
Visualization orbit readout
Latitude
Unknown
Longitude
Unknown
Altitude
Unknown
Speed
Unknown
Apparent Right ascension
Unknown
Apparent Declination
Unknown
Sunlit
N/A
Visualization observer readout
Local Sidereal Time
16:54:10
Azimuth
Unknown
Elevation
Unknown
Doppler factor
Unknown
Orbital elements
Apogee altitude
413.18 km
Perigee altitude
400.862 km
Semi-major axis
6,785.158 km
Eccentricity
0.00091
Inclination
53.0562°
RAAN
71.8411°
Arg. of periapsis
2.496°
True anomaly
249.53773°
Mean anomaly
249.6352°
Eccentric anomaly
249.58646°
Mean motion
3.88332 °/min
Orbital period
92.7 mins
BSTAR
-0.004899
Loading maneuver chart data...
Computing Atmospheric mass density...

Documentation

Showing up to 5 results
|